User: anonymous   Login
Location: Unspecified
(42.3650°N, 71.1030°W)
Time: 17:48:38
(UTC+00:00)
Language:

SJ-6B - Orbit

View from above orbital plane
View from above orbital plane
View from above satellite
View from above satellite

Ground track
Ground track

The orbit data is extracted from the following two-line orbital elements,

1 28415U 04035C   24140.61478652  .00012431  00000-0  64642-3 0  9998
2 28415  97.4259 174.9134 0044806 121.6972 238.8641 15.15308656 79634
Epoch (UTC): 19 May 2024 14:45:17
Eccentricity: 0.0044806
inclination: 97.4259°
perigee height: 489 km
apogee height: 551 km
right ascension of ascending node: 174.9134°
argument of perigee: 121.6972°
revolutions per day: 15.15308656
mean anomaly at epoch: 238.8641°
orbit number at epoch: 7963

The dashed part of the orbit path shows where the satellite is in the earth's shadow,  

DLR